{"data":{"norad_id":59851,"epoch":"2026-05-24T12:23:00.337632Z","epoch_age_seconds":120415,"freshness":"FRESH","line1":"1 59851U 24097S   26144.51597613  .00001490  00000+0  63708-4 0  9995","line2":"2 59851  43.0002 206.1172 0001771 281.8799  78.1854 15.27564699113516","mean_motion":15.27564699,"eccentricity":0.0001771,"inclination_deg":43.0002,"raan_deg":206.1172,"arg_perigee_deg":281.8799,"mean_anomaly_deg":78.1854,"bstar":6.3708e-5,"rev_number":11351,"period_min":94.267692945685,"perigee_km":481.87978894879,"apogee_km":484.31003729241,"semimajor_km":6861.2319131206,"source":"CELESTRAK","updated_at":"2026-05-25T13:38:19.088628Z"}}